Champaign, IL

4:03 PM CST on December 15, 2019 (GMT -0600)
Univ Of Illinois-Willard

Weather History for KCMI - May, 2019

Change the Weather History Date:

Wednesday, May 8, 2019

  Actual Average Record
Temperature  
Mean Temperature 69 °F 60 °F  
Max Temperature 85 °F 72 °F 92 °F (2014)
Min Temperature 52 °F 48 °F 40 °F (2017)
Degree Days  
Heating Degree Days 0 6  
Month to date heating degree days 40 56  
Since 1 July heating degree days 5803 5720  
Cooling Degree Days 4 1  
Month to date cooling degree days 4 8  
Year to date cooling degree days 7 19  
Growing Degree Days 18 (Base 50)    
Moisture  
Dew Point 54 °F    
Average Humidity 65    
Maximum Humidity 89    
Minimum Humidity 40    
Precipitation  
Precipitation 0.15 in 0.16 in 0.49 in (2016)
Month to date precipitation 0.52 1.28  
Year to date precipitation 12.66 11.89  
Sea Level Pressure  
Sea Level Pressure 29.93 in    
Wind  
Wind Speed 17 mph (ESE)    
Max Wind Speed 29 mph    
Max Gust Speed 39 mph    
Visibility 10 miles    
Events Rain , Thunderstorm    
T = Trace of Precipitation, MM = Missing Value Source: NWS Daily Summary

Daily Weather History Graph

Daily Weather History Graph

Search for Another Location

Airport or City:

Astronomy

May. 08, 2019 Rise Set
Actual Time 5:45 AM CDT 7:54 PM CDT
Civil Twilight 5:15 AM CDT 8:24 PM CDT
Nautical Twilight 4:38 AM CDT 9:01 PM CDT
Astronomical Twilight 3:58 AM CDT 9:42 PM CDT
Moon 8:41 AM CDT (5/8) 11:54 PM CDT (5/8)
Length of Visible Light 15h 09m
Length of Day
14h 09m
Waxing Crescent, 16% of the Moon is Illuminated
May 8
Waxing Crescent
May 11
First Quarter
May 18
Full
May 26
Last Quarter
Jun 3
New

Hourly Weather History & Observations

Time (CDT) Temp. Heat Index Dew Point Humidity Pressure Visibility Wind Dir Wind Speed Gust Speed Precip Events Conditions
12:53 AM 55.0 °F - 51.1 °F 86% 30.09 in 10.0 mi ENE 15.0 mph - N/A   Overcast
1:53 AM 54.0 °F - 50.0 °F 86% 30.09 in 10.0 mi NE 13.8 mph - N/A   Clear
2:53 AM 54.0 °F - 50.0 °F 86% 30.07 in 10.0 mi East 15.0 mph - N/A   Clear
3:53 AM 53.1 °F - 50.0 °F 89% 30.06 in 10.0 mi ENE 16.1 mph - N/A   Partly Cloudy
4:53 AM 53.1 °F - 48.9 °F 86% 30.04 in 10.0 mi East 16.1 mph - N/A   Mostly Cloudy
5:36 AM 53.1 °F - 48.0 °F 83% 30.05 in 10.0 mi East 12.7 mph 24.2 mph N/A Thunderstorm Mostly Cloudy
5:53 AM 53.1 °F - 48.9 °F 86% 30.08 in 6.0 mi Variable 4.6 mph - 0.03 in Rain , Thunderstorm Thunderstorms and Rain
6:14 AM 52.0 °F - 50.0 °F 93% 30.04 in 10.0 mi East 15.0 mph - 0.00 in Thunderstorm Mostly Cloudy
6:17 AM 52.0 °F - 50.0 °F 93% 30.04 in 10.0 mi East 16.1 mph - 0.00 in   Scattered Clouds
6:53 AM 52.0 °F - 48.9 °F 89% 30.04 in 10.0 mi East 12.7 mph - 0.00 in   Scattered Clouds
7:53 AM 54.0 °F - 48.9 °F 83% 30.03 in 10.0 mi East 17.3 mph - N/A   Clear
8:53 AM 57.0 °F - 50.0 °F 77% 30.02 in 10.0 mi East 18.4 mph - N/A   Clear
9:53 AM 62.1 °F - 52.0 °F 70% 29.99 in 10.0 mi East 19.6 mph - N/A   Clear
10:53 AM 69.1 °F - 55.0 °F 61% 29.96 in 10.0 mi ESE 18.4 mph 27.6 mph N/A   Clear
11:53 AM 75.0 °F - 57.9 °F 55% 29.94 in 10.0 mi SE 17.3 mph 28.8 mph N/A   Clear
12:53 PM 79.0 °F - 59.0 °F 50% 29.89 in 10.0 mi SSE 23.0 mph 31.1 mph N/A   Clear
1:53 PM 82.0 °F 82.4 °F 60.1 °F 47% 29.86 in 10.0 mi SSE 23.0 mph 31.1 mph N/A   Partly Cloudy
2:53 PM 84.0 °F 83.8 °F 59.0 °F 43% 29.83 in 10.0 mi South 24.2 mph 36.8 mph N/A   Partly Cloudy
3:53 PM 84.9 °F 84.2 °F 57.9 °F 40% 29.79 in 10.0 mi SSE 25.3 mph 35.7 mph N/A   Clear
4:53 PM 82.9 °F 82.1 °F 55.9 °F 39% 29.78 in 10.0 mi South 21.9 mph 33.4 mph N/A   Clear
5:53 PM 79.0 °F - 57.9 °F 48% 29.78 in 10.0 mi SSE 19.6 mph - N/A   Clear
6:53 PM 78.1 °F - 59.0 °F 52% 29.77 in 10.0 mi SSE 13.8 mph - N/A   Clear
7:53 PM 75.0 °F - 60.1 °F 60% 29.78 in 10.0 mi SSE 13.8 mph - N/A   Clear
8:53 PM 73.9 °F - 59.0 °F 59% 29.78 in 10.0 mi SSE 12.7 mph - N/A   Clear
9:53 PM 73.9 °F - 57.0 °F 55% 29.76 in 10.0 mi SSE 13.8 mph - N/A   Clear
10:53 PM 71.1 °F - 59.0 °F 66% 29.73 in 10.0 mi SE 11.5 mph - N/A   Clear
11:53 PM 71.1 °F - 61.0 °F 70% 29.70 in 10.0 mi SE 12.7 mph - 0.00 in Rain Light Rain